When you browse on this site, cookies collect data to enhance your experience and personalize the content and advertising you see.
Visit our Privacy Policy to learn more. By continuing to use the site, you agree to this use of cookies and data.
  • In Hungary
  • List of Countries
  • For 7 days
  • Water Temperature
  • Weather Map
  • News
  • Weather Widgets
  • user-avatar
    Login

    Hourly Weather Fort Smith

    Today, 17 November, Sunday

    Time Temperature Precipitation Wind Pressure Humidity
    00:00 +6°C° 0 mm 1 mps 751 mmHg 65%
    01:00 +6°C° 0 mm 1 mps 751 mmHg 66%
    02:00 +6°C° 0 mm 1 mps 750 mmHg 67%
    03:00 +5°C° 0 mm 1 mps 750 mmHg 68%
    04:00 +5°C° 0 mm 1 mps 750 mmHg 68%
    05:00 +5°C° 0 mm 1 mps 750 mmHg 68%
    06:00 +5°C° 0 mm 1 mps 750 mmHg 69%
    07:00 +5°C° 0 mm 0 mps 750 mmHg 67%
    08:00 +6°C° 0 mm 0 mps 750 mmHg 64%
    09:00 +7°C° 0 mm 0 mps 750 mmHg 62%
    10:00 +9°C° 0 mm 1 mps 750 mmHg 58%
    11:00 +11°C° 0 mm 1 mps 749 mmHg 54%
    12:00 +13°C° 0 mm 1 mps 749 mmHg 50%
    13:00 +13°C° 0 mm 2 mps 748 mmHg 54%
    14:00 +14°C° 0 mm 2 mps 747 mmHg 57%
    15:00 +14°C° 0 mm 2 mps 747 mmHg 60%
    16:00 +13°C° 0 mm 2 mps 747 mmHg 67%
    17:00 +12°C° 0 mm 1 mps 747 mmHg 74%
    18:00 +11°C° 0 mm 1 mps 748 mmHg 81%
    19:00 +10°C° 0 mm 1 mps 748 mmHg 84%
    20:00 +10°C° 0 mm 1 mps 748 mmHg 87%
    21:00 +9°C° 0 mm 1 mps 748 mmHg 89%
    22:00 +8°C° 0 mm 1 mps 748 mmHg 90%
    23:00 +8°C° 0 mm 1 mps 748 mmHg 91%

    Tomorrow, 18 November, Monday

    Time Temperature Precipitation Wind Pressure Humidity
    00:00 +7°C° 0 mm 1 mps 748 mmHg 92%
    01:00 +7°C° 0 mm 1 mps 748 mmHg 92%
    02:00 +7°C° 0 mm 1 mps 748 mmHg 91%
    03:00 +6°C° 0 mm 0 mps 747 mmHg 90%
    04:00 +6°C° 0 mm 0 mps 747 mmHg 90%
    05:00 +7°C° 0 mm 1 mps 747 mmHg 91%
    06:00 +6°C° 0 mm 1 mps 747 mmHg 91%
    07:00 +8°C° 0 mm 1 mps 747 mmHg 85%
    08:00 +9°C° 0 mm 1 mps 747 mmHg 79%
    09:00 +10°C° 0 mm 1 mps 747 mmHg 73%
    10:00 +12°C° 0 mm 1 mps 747 mmHg 66%
    11:00 +14°C° 0 mm 2 mps 746 mmHg 58%
    12:00 +16°C° 0 mm 2 mps 745 mmHg 51%
    13:00 +17°C° 0 mm 3 mps 745 mmHg 52%
    14:00 +17°C° 0 mm 3 mps 744 mmHg 52%
    15:00 +18°C° 0 mm 4 mps 743 mmHg 53%
    16:00 +16°C° 0 mm 3 mps 743 mmHg 61%
    17:00 +14°C° 0 mm 2 mps 744 mmHg 70%
    18:00 +12°C° 0 mm 2 mps 744 mmHg 78%
    19:00 +12°C° 0 mm 1 mps 744 mmHg 81%
    20:00 +11°C° 0 mm 1 mps 744 mmHg 84%
    21:00 +11°C° 0 mm 1 mps 744 mmHg 87%
    22:00 +10°C° 0 mm 1 mps 745 mmHg 89%
    23:00 +10°C° 0 mm 1 mps 745 mmHg 90%

    Day after tomorrow, 19 November, Tuesday

    Time Temperature Precipitation Wind Pressure Humidity
    00:00 +10°C° 0 mm 1 mps 745 mmHg 92%
    01:00 +10°C° 0 mm 1 mps 745 mmHg 92%
    02:00 +10°C° 0 mm 1 mps 745 mmHg 92%
    03:00 +9°C° 0 mm 1 mps 745 mmHg 92%
    04:00 +9°C° 0 mm 1 mps 746 mmHg 92%
    05:00 +9°C° 0 mm 1 mps 746 mmHg 92%
    06:00 +8°C° 0 mm 1 mps 746 mmHg 92%
    07:00 +10°C° 0 mm 1 mps 747 mmHg 87%
    08:00 +11°C° 0 mm 1 mps 747 mmHg 81%
    09:00 +12°C° 0 mm 1 mps 748 mmHg 76%
    10:00 +14°C° 0 mm 1 mps 748 mmHg 69%
    11:00 +16°C° 0 mm 1 mps 747 mmHg 62%
    12:00 +19°C° 0 mm 1 mps 747 mmHg 55%
    13:00 +19°C° 0 mm 1 mps 747 mmHg 54%
    14:00 +20°C° 0 mm 1 mps 746 mmHg 52%
    15:00 +18°C° 0 mm 0 mps 746 mmHg 51%
    16:00 +18°C° 0 mm 1 mps 746 mmHg 59%
    17:00 +15°C° 0 mm 1 mps 746 mmHg 66%
    18:00 +13°C° 0 mm 1 mps 746 mmHg 74%
    19:00 +12°C° 0 mm 1 mps 746 mmHg 76%
    20:00 +12°C° 0 mm 1 mps 746 mmHg 77%
    21:00 +12°C° 0 mm 1 mps 747 mmHg 79%
    22:00 +10°C° 0 mm 2 mps 746 mmHg 81%
    23:00 +10°C° 0 mm 2 mps 746 mmHg 83%

    20 November, Wednesday

    Time Temperature Precipitation Wind Pressure Humidity
    00:00 +9°C° 0 mm 2 mps 746 mmHg 86%
    01:00 +9°C° 0 mm 2 mps 746 mmHg 87%
    02:00 +9°C° 0 mm 2 mps 746 mmHg 89%
    03:00 +9°C° 0 mm 2 mps 746 mmHg 90%
    04:00 +9°C° 0 mm 2 mps 746 mmHg 90%
    05:00 +9°C° 0 mm 2 mps 746 mmHg 91%
    06:00 +10°C° 0 mm 2 mps 746 mmHg 91%
    07:00 +12°C° 0 mm 2 mps 746 mmHg 88%
    08:00 +12°C° 0 mm 3 mps 746 mmHg 85%
    09:00 +13°C° 0 mm 3 mps 746 mmHg 82%
    10:00 +14°C° 0 mm 3 mps 746 mmHg 82%
    11:00 +17°C° 0 mm 3 mps 745 mmHg 82%
    12:00 +18°C° 0 mm 3 mps 745 mmHg 82%
    13:00 +18°C° 0 mm 3 mps 745 mmHg 83%
    14:00 +18°C° 0 mm 3 mps 744 mmHg 84%
    15:00 +18°C° 0 mm 4 mps 744 mmHg 86%
    16:00 +18°C° 0.2 mm 4 mps 744 mmHg 86%
    17:00 +18°C° 0.2 mm 4 mps 744 mmHg 87%
    18:00 +18°C° 0.2 mm 4 mps 744 mmHg 87%
    19:00 +18°C° 0.1 mm 4 mps 744 mmHg 87%
    20:00 +18°C° 0.1 mm 4 mps 744 mmHg 87%
    21:00 +18°C° 0.1 mm 4 mps 744 mmHg 86%
    22:00 +18°C° 0.3 mm 3 mps 744 mmHg 88%
    23:00 +18°C° 0.3 mm 3 mps 744 mmHg 89%

    21 November, Thursday

    Time Temperature Precipitation Wind Pressure Humidity
    00:00 +18°C° 0.3 mm 3 mps 744 mmHg 90%
    01:00 +18°C° 0.1 mm 3 mps 744 mmHg 91%
    02:00 +18°C° 0.1 mm 3 mps 744 mmHg 91%
    03:00 +18°C° 0.1 mm 3 mps 744 mmHg 92%
    04:00 +18°C° 0.2 mm 3 mps 744 mmHg 92%
    05:00 +18°C° 0.2 mm 3 mps 744 mmHg 93%
    06:00 +18°C° 0.2 mm 3 mps 744 mmHg 93%
    07:00 +19°C° 0.1 mm 3 mps 745 mmHg 92%
    08:00 +19°C° 0.1 mm 3 mps 745 mmHg 90%
    09:00 +20°C° 0.1 mm 3 mps 745 mmHg 89%
    10:00 +20°C° 0.1 mm 3 mps 745 mmHg 89%
    11:00 +20°C° 0.1 mm 3 mps 745 mmHg 88%
    12:00 +20°C° 0.1 mm 3 mps 744 mmHg 88%
    13:00 +20°C° 1.3 mm 3 mps 744 mmHg 89%
    14:00 +20°C° 1.3 mm 3 mps 743 mmHg 90%
    15:00 +19°C° 1.3 mm 3 mps 742 mmHg 92%
    16:00 +19°C° 0.8 mm 3 mps 743 mmHg 93%
    17:00 +19°C° 0.8 mm 2 mps 743 mmHg 94%
    18:00 +19°C° 0.8 mm 2 mps 743 mmHg 96%
    19:00 +19°C° 1.3 mm 2 mps 743 mmHg 96%
    20:00 +18°C° 1.3 mm 2 mps 743 mmHg 96%
    21:00 +18°C° 1.3 mm 2 mps 743 mmHg 97%
    22:00 +17°C° 0.8 mm 2 mps 743 mmHg 96%
    23:00 +17°C° 0.8 mm 2 mps 743 mmHg 96%

    22 November, Friday

    Time Temperature Precipitation Wind Pressure Humidity
    00:00 +17°C° 0.8 mm 2 mps 744 mmHg 96%
    01:00 +16°C° 0.1 mm 2 mps 744 mmHg 94%
    02:00 +15°C° 0.1 mm 2 mps 744 mmHg 92%
    03:00 +13°C° 0.1 mm 3 mps 744 mmHg 89%
    04:00 +12°C° 0.4 mm 3 mps 744 mmHg 89%
    05:00 +11°C° 0.4 mm 3 mps 744 mmHg 89%
    06:00 +10°C° 0.4 mm 3 mps 744 mmHg 89%
    07:00 +8°C° 1.4 mm 4 mps 745 mmHg 89%
    08:00 +8°C° 1.4 mm 4 mps 746 mmHg 90%
    09:00 +7°C° 1.4 mm 4 mps 746 mmHg 91%
    10:00 +7°C° 0.2 mm 4 mps 747 mmHg 87%
    11:00 +7°C° 0.2 mm 5 mps 747 mmHg 83%
    12:00 +6°C° 0.2 mm 5 mps 747 mmHg 79%
    13:00 +6°C° 0 mm 5 mps 747 mmHg 78%
    14:00 +5°C° 0 mm 5 mps 747 mmHg 76%
    15:00 +5°C° 0 mm 5 mps 747 mmHg 74%
    16:00 +3°C° 0 mm 5 mps 748 mmHg 73%
    17:00 +4°C° 0 mm 4 mps 749 mmHg 71%
    18:00 +3°C° 0 mm 4 mps 749 mmHg 70%
    19:00 +3°C° 0 mm 4 mps 750 mmHg 68%
    20:00 +3°C° 0 mm 4 mps 751 mmHg 67%
    21:00 +3°C° 0 mm 4 mps 751 mmHg 66%
    22:00 +2°C° 0 mm 3 mps 751 mmHg 68%
    23:00 +2°C° 0 mm 3 mps 752 mmHg 69%
    Show more